Weather History for Iowa City, IA

Change the Weather History Date:

Saturday, October 5, 2013

  Actual Average Record
Temperature  
Mean Temperature 59 °F 56 °F  
Max Temperature 72 °F 68 °F 88 °F (1963)
Min Temperature 45 °F 44 °F 29 °F (1950)
Degree Days  
Heating Degree Days 6 10  
Month to date heating degree days 6 45  
Since 1 July heating degree days 72 157  
Cooling Degree Days 0 1  
Month to date cooling degree days 23 5  
Year to date cooling degree days 1064 907  
Growing Degree Days 10 (Base 50)    
Moisture  
Dew Point 54 °F    
Average Humidity 72    
Maximum Humidity 100    
Minimum Humidity 43    
Precipitation  
Precipitation T in 0.08 in 1.87 in (1954)
Month to date precipitation 1.48 0.42  
Year to date precipitation 31.67 29.96  
Sea Level Pressure  
Sea Level Pressure 29.85 in    
Wind  
Wind Speed 5 mph (SW)    
Max Wind Speed 16 mph    
Max Gust Speed 21 mph    
Visibility 10 miles    
Events Rain    
T = Trace of Precipitation, MM = Missing Value Source: NWS Daily Summary

Daily Weather History Graph

Daily Weather History Graph

Search for Another Location

Airport:

Trip Planner

Search our weather history database for the weather conditions in past years. The results will help you decide how hot, cold, wet, or windy it might be!

Date:

Astronomy

Oct. 05, 2013 Rise Set
Actual Time 7:07 AM CDT 6:40 PM CDT
Civil Twilight 6:39 AM CDT 7:08 PM CDT
Nautical Twilight 6:07 AM CDT 7:40 PM CDT
Astronomical Twilight 5:35 AM CDT 8:12 PM CDT
Moon 7:48 AM CDT (10/5) 6:58 PM CDT (10/5)
Length of Visible Light 12h 28m
Length of Day
11h 33m
New Moon, 1% of the Moon is Illuminated
Oct 5
New Moon
Oct 11
First Quarter
Oct 18
Full
Oct 26
Last Quarter
Nov 3
New

Hourly Weather History & Observations

Time (CDT) Temp. Dew Point Humidity Pressure Visibility Wind Dir Wind Speed Gust Speed Precip Events Conditions
12:52 AM 71.1 °F 66.0 °F 84% 29.84 in 10.0 mi SSE 5.8 mph - N/A   Clear
1:52 AM 70.0 °F 66.0 °F 87% 29.84 in 10.0 mi SE 5.8 mph - N/A   Clear
2:52 AM 70.0 °F 66.9 °F 90% 29.83 in 10.0 mi SE 3.5 mph - N/A   Partly Cloudy
3:52 AM 70.0 °F 66.9 °F 90% 29.81 in 10.0 mi Calm Calm - N/A   Scattered Clouds
4:52 AM 68.0 °F 66.9 °F 96% 29.84 in 10.0 mi Calm Calm - N/A   Mostly Cloudy
5:52 AM 68.0 °F 66.9 °F 96% 29.86 in 10.0 mi Calm Calm - N/A   Mostly Cloudy
6:52 AM 66.9 °F 66.0 °F 97% 29.84 in 10.0 mi Calm Calm - N/A   Partly Cloudy
7:52 AM 68.0 °F 64.0 °F 87% 29.87 in 10.0 mi SW 6.9 mph - N/A   Overcast
8:52 AM 66.0 °F 60.1 °F 81% 29.89 in 10.0 mi WSW 8.1 mph - 0.00 in Rain Light Rain
9:36 AM 64.4 °F 59.0 °F 83% 29.89 in 10.0 mi West 6.9 mph - 0.00 in Rain Light Rain
9:52 AM 64.0 °F 59.0 °F 84% 29.88 in 10.0 mi West 8.1 mph - 0.00 in   Mostly Cloudy
10:18 AM 62.6 °F 57.2 °F 82% 29.86 in 10.0 mi NNW 6.9 mph - 0.00 in Rain Light Rain
10:52 AM 62.1 °F 55.0 °F 78% 29.88 in 10.0 mi West 11.5 mph - 0.00 in   Overcast
11:00 AM 62.6 °F 55.4 °F 77% 29.90 in 10.0 mi West 10.4 mph - N/A   Overcast
11:52 AM 62.1 °F 55.0 °F 78% 29.88 in 10.0 mi WSW 4.6 mph - N/A   Mostly Cloudy
12:06 PM 62.6 °F 55.4 °F 77% 29.89 in 10.0 mi SW 4.6 mph - N/A   Scattered Clouds
12:52 PM 63.0 °F 54.0 °F 72% 29.87 in 10.0 mi Variable 3.5 mph - N/A   Partly Cloudy
1:28 PM 64.4 °F 53.6 °F 68% 29.87 in 10.0 mi SW 9.2 mph - N/A   Mostly Cloudy
1:52 PM 64.9 °F 55.0 °F 70% 29.84 in 10.0 mi SSW 9.2 mph - N/A   Overcast
2:01 PM 64.4 °F 53.6 °F 68% 29.84 in 10.0 mi SW 8.1 mph - N/A   Overcast
2:52 PM 64.0 °F 51.1 °F 63% 29.83 in 10.0 mi SSW 10.4 mph - N/A   Partly Cloudy
3:52 PM 64.9 °F 48.0 °F 54% 29.82 in 10.0 mi WSW 13.8 mph - N/A   Mostly Cloudy
4:52 PM 63.0 °F 44.1 °F 50% 29.82 in 10.0 mi WSW 13.8 mph - N/A   Overcast
5:52 PM 62.1 °F 39.9 °F 44% 29.82 in 10.0 mi WSW 9.2 mph - N/A   Overcast
6:52 PM 57.0 °F 41.0 °F 55% 29.83 in 10.0 mi SW 3.5 mph - N/A   Clear
7:52 PM 55.0 °F 42.1 °F 62% 29.84 in 10.0 mi SSW 3.5 mph - N/A   Clear
8:52 PM 54.0 °F 42.1 °F 64% 29.86 in 10.0 mi WSW 11.5 mph 19.6 mph N/A   Clear
9:52 PM 50.0 °F 42.1 °F 74% 29.87 in 10.0 mi Calm Calm - N/A   Clear
10:52 PM 48.0 °F 42.1 °F 80% 29.86 in 10.0 mi Calm Calm - N/A   Clear
11:52 PM 46.9 °F 39.9 °F 77% 29.84 in 10.0 mi Calm Calm - N/A   Clear